Preview of NWS' New Version of Forecast
This preview is not operational and should not be used for support decisions.

Regional Weather Roundup (RWR)

Issued by National Weather Service (NWS)

                            
000
ASUS45 KABQ 210801
RWRNM 
NEW MEXICO REGIONAL WEATHER ROUNDUP
NATIONAL WEATHER SERVICE ALBUQUERQUE NM
200 AM MDT SAT SEP 21 2019

NOTE: "FAIR" MEANS FEW OR NO CLOUDS BELOW 12,000 FEET AGL WITH NO
       SIGNIFICANT WEATHER OR OBSTRUCTIONS TO VISION.

      THIS PRODUCT IS RELEASED AS TWO VERSIONS.  ONE VERSION NEAR
      THE TOP OF THE HOUR CONTAINING PRELIMINARY DATA FROM ALBUQUERQUE
      AND OTHER STATIONS.  A FINAL VERSION WITH ADDITIONAL DATA IS 
      ISSUED ABOUT 10 MINUTES AFTER THE HOUR.
 
NMZ501-503-504-510>518-210900-
NORTHWEST PLATEAU/NORTHCENTRAL MOUNTAINS
  
CITY           SKY/WX    TMP DP  RH WIND       PRES   REMARKS
FARMINGTON     FAIR      47  19  33 N6        30.05R                  
LOS ALAMOS     FAIR      61  25  24 S6        30.17R                  
SANTA FE       FAIR      55  30  38 NW5       30.12R                  
TAOS           FAIR      47  25  42 SE8       30.17R                  

$$
NMZ402-403-502-505>509-210900-
WESTCENTRAL MOUNTAINS/SOUTHWEST MOUNTAINS
  
CITY           SKY/WX    TMP DP  RH WIND       PRES   REMARKS
GALLUP         FAIR      45  25  45 NE3       30.14R                  
GRANTS         FAIR      44  35  71 NW15      30.17S                  
SILVER CITY    FAIR      59  42  53 N8        30.09R                  

$$
NMZ407-409-411-412-210900-
SOUTHERN DESERTS
  
CITY           SKY/WX    TMP DP  RH WIND       PRES   REMARKS
DEMING         FAIR      64  52  64 SW3       30.02R                  
LAS CRUCES     FAIR      70  49  46 W10       30.01S                  
ALAMOGORDO     FAIR      68  46  45 SE3       29.99S                  
T OR C         FAIR      66  47  50 NW8       30.03R                  

$$
NMZ519>523-210900-
CENTRAL VALLEYS/CENTRAL HIGHLANDS
  
CITY           SKY/WX    TMP DP  RH WIND       PRES   REMARKS
ALBUQUERQUE    FAIR      61  34  36 SE8       30.07S                  
DOUBLE EAGLE   FAIR      58  33  39 CALM      30.10S                  
CLINES CORNERS FAIR      54  31  41 W14       30.17S                  
BELEN          FAIR      59  33  37 E7        30.07S                  
SOCORRO        FAIR      63  37  38 SW6       30.04R                  

$$
NMZ524>526-539-540-210900-
SOUTHCENTRAL MOUNTAINS
  
CITY           SKY/WX    TMP DP  RH WIND       PRES   REMARKS
RUIDOSO        FAIR      59  39  47 W6        30.19R                  

$$
NMZ527>531-210900-
NORTHEAST HIGHLANDS/NORTHEAST PLAINS
  
CITY           SKY/WX    TMP DP  RH WIND       PRES   REMARKS
LAS VEGAS      FAIR      52  43  71 S9        30.13S                  
RATON          FAIR      51  42  71 N3        30.06S                  
CLAYTON        MOCLDY    63  62  97 S14       30.00S                  

$$
NMZ532>537-210900-
EASTCENTRAL PLAINS
  
CITY           SKY/WX    TMP DP  RH WIND       PRES   REMARKS
TUCUMCARI      FAIR      68  64  87 S20       29.95S                  
CANNON AFB     NOT AVBL                                               
CLOVIS AIRPORT FAIR      64  63  96 S7        30.03S                  

$$
NMZ028-029-033-538-210900-
SOUTHEAST PLAINS
  
CITY           SKY/WX    TMP DP  RH WIND       PRES   REMARKS
ROSWELL        FAIR      72  63  73 S9        29.96S                  
ARTESIA        FAIR      72  66  83 SE13      29.98S                  
CARLSBAD       FAIR      74  60  61 SE7       29.95R                  
HOBBS          FAIR      70  66  88 SE7       30.00F                  


$$